{"data":{"norad_id":49387,"intl_designator":"2021-100A","name":"SDGSAT 1","alt_names":[],"object_type":"PAYLOAD","status":"ACTIVE","operator":null,"country":"PRC","launch_date":"2021-11-05","launch_site_code":"TAISC","launch_vehicle":null,"mission":null,"orbit_class":"UNKNOWN","rcs_meters":null,"size_class":null,"mass_kg":null,"dimensions":null,"purposes":[],"wikipedia_slug":null,"has_3d_model":false,"image_url":null,"decayed_at":null,"tle_current":{"epoch":"2026-09-20T04:51:25.670016Z","epoch_age_seconds":40182,"freshness":"FRESH","line1":"1 49387U 21100A   26263.20238044  .00001131  00000+0  56338-4 0  9991","line2":"2 49387  97.2547 306.4942 0007978 305.9447  54.1048 15.19497268270348","mean_motion":15.19497268,"eccentricity":0.0007978,"inclination_deg":97.2547,"raan_deg":306.4942,"arg_perigee_deg":305.9447,"mean_anomaly_deg":54.1048,"bstar":5.6338e-5,"rev_number":27034,"period_min":94.768186184064,"perigee_km":501.86567648807,"apogee_km":512.85217378621,"semimajor_km":6885.4959251371,"source":"CELESTRAK","updated_at":"2026-09-20T09:00:15.388394Z"}}}